Content
SEND FEEDBACK

Daily
Averages
Monthly
Summary
Canada

QUEBEC CITY, QUEBEC


Home > North America > Canada > Quebec
Elevation: 239 feet     Latitude: 46 48N     Longitude: 071 23W

WEATHER
 
SELECT A DAY
Number of Records: 195,887;   Date Range: 6/30/96 - 10/23/14
 
SHARE

PRINT THIS DATA

[ ← Previous Day ]
WEATHER ALMANAC - FEBRUARY 8, 2014
[ Next Day → ]
[ °C ]   °F
Weather ElementAverageHighLow
Temperature11.7 °F17.6 °F (2:00 pm)3.2 °F (9:00 pm)
Dewpoint3.9 °F11 °F (1:00 am)-2.2 °F (9:00 pm)
Humidity69.1 %79 % (1:00 am)43 % (1:00 pm)
Barometer30.10 in30.17 in (10:00 pm)30.02 in (1:00 am)
Wind Speed14.4 mph23 mph (6:00 am)
Wind Gust29.9 mph (2:19 am)
Weather ElementAverage
Visibility13.9 mi
Wind DirectionWSW (242.2 °)

Weather ElementTotal
Precipitation---
Heating Degree Days54.6 (Base 65)
Averaged from 37 records on February 8, 2014
WEATHER CONDITIONS BREAKOUT
WIND DIRECTION BREAKOUT
WEATHER BY HOUR - FEBRUARY 8, 2014
[ °C ]   °F
Local TimeTemperatureDewpointHumidityBarometerVisibilityWind DirectionWind SpeedGust SpeedPrecipitationEventsConditions
1:00 AM15.0 °F11.0 °F75 %30.04 inWSW (240°)10.4 mph
1:00 AM14.0 °F8.6 °F79 %30.02 in3.0 miSW (230°)20.7 mphSnowLight Snow
1:36 AM14.0 °F8.6 °F79 %30.03 in2.5 miSW (230°)20.7 mph27.6 mphSnowLight Snow
2:00 AM14.0 °F8.6 °F79 %30.04 in1.0 miSW (230°)21.9 mph28.8 mphSnowLight Snow
2:19 AM12.2 °F6.8 °F79 %30.03 in3.0 miSW (230°)21.9 mph29.9 mphSnowLight Snow
2:49 AM12.2 °F6.8 °F79 %30.03 in9.0 miSW (230°)20.7 mph28.8 mphSnowLow Drifting Snow
3:00 AM12.2 °F5.0 °F73 %30.04 in10.0 miSW (230°)18.4 mph25.3 mphSnowLow Drifting Snow
4:00 AM11.0 °F4.0 °F64 %30.06 inWSW (240°)10.4 mph
4:00 AM10.4 °F3.2 °F73 %30.05 in15.0 miWSW (240°)16.1 mphSnowLow Drifting Snow
5:00 AM8.6 °F1.4 °F73 %30.06 in15.0 miWSW (240°)17.3 mphSnowLow Drifting Snow
6:00 AM8.6 °F1.4 °F73 %30.07 in15.0 miWSW (240°)23.0 mph29.9 mphSnowLow Drifting Snow
7:00 AM10.0 °F3.0 °F64 %30.10 inWSW (240°)11.5 mph
7:00 AM8.6 °F1.4 °F73 %30.09 in30.0 miWSW (240°)17.3 mphSnowLight Snow Showers
8:00 AM10.4 °F3.2 °F73 %30.11 in1.5 miWSW (250°)12.7 mphSnowLight Snow Showers
8:39 AM10.4 °F5.0 °F79 %30.11 in6.0 miWSW (250°)11.5 mphSnowLight Snow Showers
9:00 AM10.4 °F3.2 °F73 %30.12 in12.0 miWSW (250°)12.7 mphSnowLight Snow Showers
9:28 AM12.2 °F3.2 °F67 %30.12 in15.0 miWSW (250°)16.1 mphScattered Clouds
10:00 AM12.2 °F3.2 °F67 %30.13 in20.0 miWSW (250°)23.0 mph29.9 mphSnowLow Drifting Snow
10:00 AM13.0 °F4.0 °F55 %30.14 inWSW (250°)17.3 mph
11:00 AM14.0 °F3.2 °F62 %30.13 in20.0 miWSW (240°)19.6 mph27.6 mphSnowLow Drifting Snow
12:00 PM15.8 °F3.2 °F58 %30.11 in20.0 miWSW (250°)17.3 mph24.2 mphSnowLow Drifting Snow
1:00 PM17.0 °F4.0 °F43 %30.10 inWSW (250°)15.0 mph
1:00 PM15.8 °F5.0 °F62 %30.09 in20.0 miWSW (250°)17.3 mph25.3 mphSnowLow Drifting Snow
2:00 PM17.6 °F5.0 °F58 %30.09 in20.0 miWSW (240°)13.8 mph23.0 mphSnowLow Drifting Snow
2:09 PM15.8 °F6.8 °F68 %30.09 in15.0 miSW (230°)20.7 mphSnowLight Snow Showers
3:00 PM17.6 °F5.0 °F58 %30.09 in20.0 miWSW (250°)15.0 mph23.0 mphSnowLow Drifting Snow
4:00 PM15.8 °F5.0 °F62 %30.10 in20.0 miSW (230°)17.3 mph25.3 mphSnowLow Drifting Snow
4:00 PM16.0 °F6.0 °F52 %30.10 inWSW (250°)11.5 mph
5:00 PM14.0 °F5.0 °F67 %30.12 in20.0 miWSW (240°)17.3 mphSnowLow Drifting Snow
6:00 PM12.2 °F3.2 °F67 %30.14 in15.0 miWSW (240°)10.4 mphPartly Cloudy
7:00 PM10.0 °F4.0 °F64 %30.15 inWSW (250°)6.9 mph
7:00 PM8.6 °F1.4 °F73 %30.15 in15.0 miWest (260°)9.2 mphPartly Cloudy
8:00 PM6.8 °F1.4 °F79 %30.15 in15.0 miWSW (240°)5.8 mphPartly Cloudy
9:00 PM3.2 °F-2.2 °F78 %30.16 in15.0 miWSW (240°)5.8 mphPartly Cloudy
10:00 PM5.0 °F1.0 °F74 %30.17 inWest (260°)1.2 mph
10:00 PM5.0 °F-0.4 °F78 %30.16 in15.0 miWSW (240°)4.6 mphFogClear
11:00 PM3.2 °F-2.2 °F78 %30.16 in15.0 miWSW (240°)2.3 mphFogClear
Hourly data recorded from CYQB, located miles away from Quebec City, Quebec







STORIES FROM OUR PARTNERS